This demonstration page uses our WeatherBlox Daily Observations layout. Learn more.

39.29038, -76.61219

Hourly Observations for March 2, 2019

Temp ( °F °C ) Dew Point ( °F °C ) Humidity (%) Winds ( mph kmh ) Pressure ( in mb ) Visibility ( mi km ) Precip ( " mm )
12:54 am 00:54 undefined 35 1.7 31 -0.6 85 85 undefined N/A 30.07 1018 N/A 0.01 0.254
1:54 am 01:54 undefined 36 2.2 32 0 86 86 undefined N/A 30.07 1018 N/A 0.02 0.508
2:54 am 02:54 undefined 36 2.2 32 0 86 86 undefined N/A 30.05 1018 N/A 0.02 0.508
3:54 am 03:54 undefined 35 1.7 31 -0.6 85 85 undefined N/A 30.04 1017 N/A 0.01 0.254
4:54 am 04:54 undefined 35 1.7 32 0 89 89 undefined N/A 30.03 1017 N/A 0.01 0.254
5:54 am 05:54 undefined 35 1.7 32 0 89 89 undefined N/A 30.06 1018 N/A 0.01 0.254
6:54 am 06:54 undefined 35 1.7 31 -0.6 85 85 undefined N/A 30.07 1018 N/A 0.01 0.254
7:54 am 07:54 undefined 36 2.2 32 0 86 86 undefined N/A 30.07 1018 N/A 0 0
8:54 am 08:54 undefined 36 2.2 32 0 86 86 undefined N/A 30.09 1019 N/A 0 0
9:54 am 09:54 undefined 37 2.8 32 0 82 82 undefined N/A 30.09 1019 N/A 0 0
10:54 am 10:54 undefined 38 3.3 32 0 79 79 undefined N/A 30.1 1019 N/A 0 0
11:54 am 11:54 undefined 39 3.9 33 0.6 79 79 undefined N/A 30.1 1019 N/A 0 0
12:54 pm 12:54 undefined 40 4.4 33 0.6 77 77 undefined N/A 30.1 1019 N/A 0 0
1:54 pm 13:54 undefined 42 5.6 31 -0.6 65 65 undefined N/A 30.07 1018 N/A 0 0
2:54 pm 14:54 undefined 44 6.7 32 0 63 63 undefined N/A 30.09 1019 N/A 0 0
3:54 pm 15:54 undefined 44 6.7 32 0 63 63 undefined N/A 30.07 1018 N/A 0 0
4:54 pm 16:54 undefined 44 6.7 32 0 63 63 undefined N/A 30.05 1018 N/A 0 0
5:54 pm 17:54 undefined 44 6.7 32 0 63 63 undefined N/A 30.08 1019 N/A 0 0
6:54 pm 18:54 undefined 44 6.7 33 0.6 65 65 undefined N/A 30.1 1019 N/A 0 0
7:54 pm 19:54 undefined 44 6.7 33 0.6 65 65 undefined N/A 30.14 1021 N/A 0 0
8:54 pm 20:54 undefined 44 6.7 34 1.1 68 68 undefined N/A 30.13 1020 N/A 0 0
9:54 pm 21:54 undefined 44 6.7 34 1.1 68 68 undefined N/A 30.14 1021 N/A 0 0
10:54 pm 22:54 undefined 43 6.1 33 0.6 68 68 undefined N/A 30.13 1020 N/A 0 0
11:54 pm 23:54 undefined 42 5.6 33 0.6 71 71 undefined N/A 30.13 1020 N/A 0 0

Powered by AerisWeather